{"data":{"norad_id":40129,"intl_designator":"2014-050B","name":"GSAT0202 (GALILEO 6)","alt_names":[],"object_type":"PAYLOAD","status":"ACTIVE","operator":null,"country":"ESA","launch_date":"2014-08-22","launch_site_code":"FRGUI","launch_vehicle":null,"mission":null,"orbit_class":"UNKNOWN","rcs_meters":2,"size_class":null,"mass_kg":null,"dimensions":null,"purposes":["earth_obs","nav"],"wikipedia_slug":null,"has_3d_model":false,"image_url":null,"decayed_at":null,"tle_current":{"epoch":"2026-09-18T09:03:42.873984Z","epoch_age_seconds":197813,"freshness":"STALE","line1":"1 40129U 14050B   26261.37757956  .00000005  00000+0  00000+0 0  9995","line2":"2 40129  48.7952 268.6916 1688641 183.6970 174.8925  1.85520415 82219","mean_motion":1.85520415,"eccentricity":0.1688641,"inclination_deg":48.7952,"raan_deg":268.6916,"arg_perigee_deg":183.697,"mean_anomaly_deg":174.8925,"bstar":0,"rev_number":8221,"period_min":776.19490016773,"perigee_km":16874.885481457,"apogee_km":26323.642811302,"semimajor_km":27977.401146379,"source":"CELESTRAK","updated_at":"2026-09-20T09:00:46.492416Z"}}}